Hourly Weather Nogent-sur-Marne

Today, 2 December, Wednesday

Time Temperature Precipitation Wind Pressure Humidity
00:00 +6°C° 0 mm 5 mps 759 mmHg 79%
01:00 +6°C° 0 mm 5 mps 759 mmHg 81%
02:00 +6°C° 0 mm 5 mps 759 mmHg 83%
03:00 +6°C° 0 mm 5 mps 758 mmHg 85%
04:00 +6°C° 0 mm 4 mps 758 mmHg 86%
05:00 +5°C° 0 mm 4 mps 758 mmHg 87%
06:00 +5°C° 0 mm 3 mps 758 mmHg 88%
07:00 +5°C° 0 mm 3 mps 758 mmHg 88%
08:00 +6°C° 0 mm 2 mps 758 mmHg 88%
09:00 +6°C° 0 mm 2 mps 758 mmHg 88%
10:00 +7°C° 0 mm 2 mps 758 mmHg 85%
11:00 +7°C° 0 mm 2 mps 758 mmHg 82%
12:00 +8°C° 0 mm 2 mps 757 mmHg 79%
13:00 +8°C° 0 mm 2 mps 757 mmHg 80%
14:00 +8°C° 0 mm 2 mps 757 mmHg 81%
15:00 +7°C° 0 mm 2 mps 756 mmHg 82%
16:00 +7°C° 0 mm 2 mps 756 mmHg 82%
17:00 +7°C° 0 mm 2 mps 755 mmHg 81%
18:00 +7°C° 0 mm 2 mps 755 mmHg 81%
19:00 +6°C° 0 mm 2 mps 755 mmHg 81%
20:00 +6°C° 0 mm 2 mps 755 mmHg 81%
21:00 +6°C° 0 mm 2 mps 754 mmHg 81%
22:00 +6°C° 0 mm 2 mps 754 mmHg 81%
23:00 +5°C° 0 mm 3 mps 753 mmHg 81%

Tomorrow, 3 December, Thursday

Time Temperature Precipitation Wind Pressure Humidity
00:00 +5°C° 0 mm 3 mps 752 mmHg 82%
01:00 +5°C° 0.1 mm 4 mps 752 mmHg 84%
02:00 +5°C° 0.1 mm 4 mps 751 mmHg 86%
03:00 +5°C° 0.1 mm 4 mps 750 mmHg 88%
04:00 +5°C° 0.1 mm 4 mps 749 mmHg 87%
05:00 +5°C° 0.1 mm 3 mps 749 mmHg 86%
06:00 +5°C° 0.1 mm 3 mps 748 mmHg 85%
07:00 +5°C° 0 mm 3 mps 747 mmHg 83%
08:00 +5°C° 0 mm 3 mps 747 mmHg 80%
09:00 +5°C° 0 mm 4 mps 746 mmHg 78%
10:00 +6°C° 0.1 mm 4 mps 745 mmHg 77%
11:00 +6°C° 0.1 mm 4 mps 744 mmHg 75%
12:00 +6°C° 0.1 mm 5 mps 743 mmHg 73%
13:00 +6°C° 0.4 mm 5 mps 742 mmHg 78%
14:00 +5°C° 0.4 mm 5 mps 741 mmHg 82%
15:00 +4°C° 0.4 mm 6 mps 740 mmHg 87%
16:00 +4°C° 0.3 mm 6 mps 738 mmHg 86%
17:00 +4°C° 0.3 mm 7 mps 737 mmHg 84%
18:00 +5°C° 0.3 mm 7 mps 736 mmHg 83%
19:00 +5°C° 1 mm 7 mps 735 mmHg 84%
20:00 +5°C° 1 mm 7 mps 734 mmHg 85%
21:00 +5°C° 1 mm 7 mps 733 mmHg 86%
22:00 +5°C° 0.6 mm 6 mps 732 mmHg 86%
23:00 +6°C° 0.6 mm 5 mps 731 mmHg 86%

Day after tomorrow, 4 December, Friday

Time Temperature Precipitation Wind Pressure Humidity
00:00 +6°C° 0.6 mm 5 mps 731 mmHg 86%
01:00 +6°C° 0.8 mm 5 mps 730 mmHg 86%
02:00 +5°C° 0.8 mm 6 mps 729 mmHg 87%
03:00 +5°C° 0.8 mm 7 mps 728 mmHg 87%
04:00 +5°C° 0.2 mm 7 mps 728 mmHg 84%
05:00 +5°C° 0.2 mm 7 mps 728 mmHg 82%
06:00 +5°C° 0.2 mm 8 mps 727 mmHg 79%
07:00 +4°C° 0.1 mm 7 mps 728 mmHg 80%
08:00 +4°C° 0.1 mm 6 mps 728 mmHg 81%
09:00 +5°C° 0.1 mm 5 mps 729 mmHg 82%
10:00 +3°C° 0.2 mm 6 mps 729 mmHg 82%
11:00 +3°C° 0.2 mm 6 mps 730 mmHg 82%
12:00 +3°C° 0.2 mm 7 mps 730 mmHg 82%
13:00 +3°C° 0.4 mm 7 mps 731 mmHg 80%
14:00 +3°C° 0.4 mm 6 mps 731 mmHg 78%
15:00 +3°C° 0.4 mm 5 mps 732 mmHg 76%
16:00 +4°C° 0.2 mm 4 mps 732 mmHg 77%
17:00 +4°C° 0.2 mm 3 mps 733 mmHg 79%
18:00 +4°C° 0.2 mm 2 mps 734 mmHg 80%
19:00 +4°C° 0.1 mm 2 mps 734 mmHg 82%
20:00 +4°C° 0.1 mm 2 mps 735 mmHg 83%
21:00 +2°C° 0.1 mm 3 mps 735 mmHg 84%
22:00 +2°C° 0 mm 3 mps 736 mmHg 84%
23:00 +3°C° 0 mm 2 mps 736 mmHg 83%

5 December, Saturday

Time Temperature Precipitation Wind Pressure Humidity
00:00 +2°C° 0 mm 2 mps 736 mmHg 83%
01:00 +2°C° 0 mm 2 mps 736 mmHg 84%
02:00 +2°C° 0 mm 2 mps 737 mmHg 85%
03:00 +2°C° 0 mm 2 mps 737 mmHg 85%
04:00 +1°C° 0 mm 2 mps 737 mmHg 87%
05:00 +1°C° 0 mm 2 mps 737 mmHg 88%
06:00 +1°C° 0 mm 2 mps 737 mmHg 89%
07:00 +1°C° 0 mm 2 mps 738 mmHg 88%
08:00 +2°C° 0 mm 2 mps 738 mmHg 87%
09:00 +2°C° 0 mm 2 mps 738 mmHg 87%
10:00 +2°C° 0 mm 3 mps 738 mmHg 85%
11:00 +2°C° 0 mm 3 mps 738 mmHg 83%
12:00 +3°C° 0 mm 4 mps 738 mmHg 81%
13:00 +3°C° 0 mm 3 mps 739 mmHg 81%
14:00 +3°C° 0 mm 3 mps 739 mmHg 81%
15:00 +4°C° 0 mm 3 mps 739 mmHg 81%
16:00 +3°C° 0 mm 3 mps 739 mmHg 82%
17:00 +3°C° 0 mm 3 mps 738 mmHg 83%
18:00 +3°C° 0 mm 3 mps 738 mmHg 84%
19:00 +3°C° 0 mm 3 mps 738 mmHg 85%
20:00 +2°C° 0 mm 3 mps 738 mmHg 86%
21:00 +2°C° 0 mm 3 mps 738 mmHg 86%
22:00 +1°C° 0 mm 4 mps 738 mmHg 85%
23:00 +1°C° 0 mm 4 mps 738 mmHg 84%

6 December, Sunday

Time Temperature Precipitation Wind Pressure Humidity
00:00 +1°C° 0 mm 4 mps 737 mmHg 82%
01:00 +1°C° 0.2 mm 4 mps 737 mmHg 84%
02:00 +1°C° 0.2 mm 4 mps 737 mmHg 86%
03:00 0°C° 0.2 mm 4 mps 737 mmHg 89%
04:00 0°C° 0.6 mm 4 mps 737 mmHg 91%
05:00 0°C° 0.6 mm 4 mps 737 mmHg 93%
06:00 0°C° 0.6 mm 4 mps 737 mmHg 95%
07:00 0°C° 0.8 mm 4 mps 737 mmHg 95%
08:00 0°C° 0.8 mm 4 mps 737 mmHg 95%
09:00 +1°C° 0.8 mm 3 mps 738 mmHg 95%
10:00 +1°C° 0.3 mm 3 mps 738 mmHg 95%
11:00 +1°C° 0.3 mm 3 mps 738 mmHg 95%
12:00 +2°C° 0.3 mm 3 mps 739 mmHg 95%
13:00 +2°C° 0.3 mm 3 mps 739 mmHg 95%
14:00 +2°C° 0.3 mm 3 mps 739 mmHg 95%
15:00 +2°C° 0.3 mm 3 mps 739 mmHg 95%
16:00 +2°C° 0.1 mm 3 mps 740 mmHg 94%
17:00 +2°C° 0.1 mm 3 mps 741 mmHg 93%
18:00 +2°C° 0.1 mm 3 mps 741 mmHg 92%
19:00 +2°C° 0 mm 3 mps 742 mmHg 90%
20:00 +2°C° 0 mm 3 mps 742 mmHg 88%
21:00 +3°C° 0 mm 2 mps 743 mmHg 87%
22:00 +2°C° 0 mm 2 mps 743 mmHg 88%
23:00 +1°C° 0 mm 3 mps 743 mmHg 90%

7 December, Monday

Time Temperature Precipitation Wind Pressure Humidity
00:00 +1°C° 0 mm 3 mps 744 mmHg 91%
01:00 +1°C° 0 mm 3 mps 744 mmHg 89%
02:00 0°C° 0 mm 4 mps 744 mmHg 87%
03:00 0°C° 0 mm 4 mps 744 mmHg 86%
04:00 0°C° 0 mm 5 mps 744 mmHg 84%
05:00 0°C° 0 mm 5 mps 744 mmHg 82%
06:00 -1°C° 0 mm 6 mps 744 mmHg 80%
07:00 +1°C° 0.2 mm 6 mps 744 mmHg 79%
08:00 +1°C° 0.2 mm 6 mps 745 mmHg 79%
09:00 +1°C° 0.2 mm 6 mps 745 mmHg 78%
10:00 +2°C° 0.1 mm 6 mps 745 mmHg 79%
11:00 +2°C° 0.1 mm 6 mps 745 mmHg 81%
12:00 +3°C° 0.1 mm 6 mps 745 mmHg 82%
13:00 +3°C° 0.1 mm 6 mps 745 mmHg 83%
14:00 +3°C° 0.1 mm 6 mps 745 mmHg 84%
15:00 +3°C° 0.1 mm 6 mps 746 mmHg 86%
16:00 +3°C° 0.1 mm 6 mps 746 mmHg 85%
17:00 +3°C° 0.1 mm 5 mps 746 mmHg 85%
18:00 +3°C° 0.1 mm 5 mps 746 mmHg 84%
19:00 +3°C° 0 mm 5 mps 746 mmHg 84%
20:00 +3°C° 0 mm 4 mps 746 mmHg 85%
21:00 +3°C° 0 mm 4 mps 746 mmHg 85%
22:00 +3°C° 0 mm 4 mps 746 mmHg 88%
23:00 +3°C° 0 mm 4 mps 746 mmHg 90%
Show more